| time (UTC) | temp F | wind direction | speed knots | gust knots | rain 1hr in | rain 24hr in | rain mn in | humidity % | barometer mb |
| 20260507053837 | 81 | 129 | 26.1 | 30.4 | 0.00 | 0.00 | 0.00 | 82 | 1011.6 |
| 20260507053335 | 81 | 99 | 17.4 | 33.0 | 0.00 | 0.00 | 0.00 | 82 | 1011.7 |
| 20260507052833 | 81 | 110 | 20.0 | 30.4 | 0.00 | 0.00 | 0.00 | 82 | 1011.9 |
| 20260507052330 | 81 | 152 | 22.6 | 34.8 | 0.00 | 0.00 | 0.00 | 82 | 1012.0 |
| 20260507051828 | 81 | 116 | 26.1 | 37.4 | 0.00 | 0.00 | 0.00 | 82 | 1012.1 |
| 20260507051325 | 81 | 105 | 24.3 | 34.8 | 0.00 | 0.00 | 0.00 | 82 | 1012.0 |
| 20260507050822 | 81 | 170 | 18.2 | 26.1 | 0.00 | 0.00 | 0.00 | 83 | 1012.2 |
| 20260507050318 | 81 | 122 | 23.5 | 28.7 | 0.00 | 0.00 | 0.00 | 83 | 1012.3 |
| 20260507045815 | 81 | 99 | 23.5 | 37.4 | 0.00 | 0.00 | 0.00 | 83 | 1012.0 |
| 20260507045312 | 81 | 119 | 16.5 | 30.4 | 0.00 | 0.00 | 0.00 | 82 | 1012.4 |
| 20260507044809 | 81 | 112 | 26.9 | 37.4 | 0.00 | 0.00 | 0.00 | 82 | 1012.2 |
| 20260507044305 | 81 | 116 | 20.9 | 28.7 | 0.00 | 0.00 | 0.00 | 82 | 1012.3 |
| 20260507043801 | 81 | 103 | 22.6 | 37.4 | 0.00 | 0.00 | 0.00 | 82 | 1012.2 |
| 20260507043258 | 81 | 121 | 24.3 | 30.4 | 0.00 | 0.00 | 0.00 | 83 | 1012.4 |
| 20260507042754 | 81 | 115 | 25.2 | 34.8 | 0.00 | 0.00 | 0.00 | 82 | 1012.5 |
| 20260507042249 | 81 | 110 | 19.1 | 33.0 | 0.00 | 0.00 | 0.00 | 82 | 1012.6 |
| 20260507041747 | 81 | 99 | 19.1 | 26.1 | 0.00 | 0.00 | 0.00 | 82 | 1012.6 |
| 20260507041244 | 81 | 162 | 18.2 | 33.0 | 0.00 | 0.00 | 0.00 | 82 | 1012.8 |
| 20260507040741 | 81 | 121 | 25.2 | 28.7 | 0.00 | 0.00 | 0.00 | 82 | 1012.8 |
| 20260507040237 | 81 | 140 | 14.8 | 28.7 | 0.00 | 0.00 | 0.00 | 82 | 1012.7 |
| 20260507035733 | 81 | 114 | 24.3 | 39.1 | 0.00 | 0.00 | 0.00 | 82 | 1012.7 |
| 20260507035228 | 81 | 126 | 23.5 | 34.8 | 0.00 | 0.00 | 0.00 | 82 | 1012.7 |
| 20260507034726 | 81 | 131 | 20.9 | 34.8 | 0.00 | 0.00 | 0.00 | 82 | 1012.8 |
| 20260507034223 | 81 | 112 | 18.2 | 26.1 | 0.00 | 0.00 | 0.00 | 82 | 1012.7 |
| 20260507033721 | 81 | 124 | 16.5 | 34.8 | 0.00 | 0.00 | 0.00 | 82 | 1013.0 |
| 20260507033218 | 81 | 92 | 18.2 | 34.8 | 0.00 | 0.00 | 0.00 | 82 | 1013.1 |
| 20260507032716 | 81 | 107 | 21.7 | 37.4 | 0.00 | 0.00 | 0.00 | 82 | 1013.0 |
| 20260507032211 | 81 | 98 | 21.7 | 34.8 | 0.00 | 0.00 | 0.00 | 82 | 1013.0 |
| 20260507031708 | 81 | 132 | 33.0 | 34.8 | 0.00 | 0.00 | 0.00 | 83 | 1013.0 |
| 20260507031205 | 82 | 102 | 25.2 | 33.0 | 0.00 | 0.00 | 0.00 | 82 | 1013.0 |
| 20260507030702 | 82 | 147 | 20.9 | 30.4 | 0.00 | 0.00 | 0.00 | 83 | 1013.2 |
| 20260507030159 | 82 | 104 | 20.0 | 28.7 | 0.00 | 0.00 | 0.00 | 82 | 1013.0 |
| 20260507025657 | 82 | 121 | 20.0 | 30.4 | 0.00 | 0.00 | 0.00 | 82 | 1013.0 |
| 20260507025153 | 81 | 129 | 18.2 | 26.1 | 0.00 | 0.00 | 0.00 | 83 | 1013.1 |
| 20260507024652 | 82 | 115 | 13.9 | 28.7 | 0.00 | 0.00 | 0.00 | 82 | 1013.0 |
| 20260507024148 | 82 | 93 | 17.4 | 39.1 | 0.00 | 0.00 | 0.00 | 82 | 1013.1 |
| 20260507023644 | 82 | 162 | 25.2 | 33.0 | 0.00 | 0.00 | 0.00 | 82 | 1012.9 |
| 20260507023141 | 82 | 108 | 19.1 | 33.0 | 0.00 | 0.00 | 0.00 | 82 | 1012.9 |
| 20260507022638 | 81 | 107 | 29.5 | 39.1 | 0.00 | 0.00 | 0.00 | 82 | 1012.8 |
| 20260507022134 | 81 | 147 | 20.9 | 41.7 | 0.00 | 0.00 | 0.00 | 82 | 1012.8 |
| 20260507021631 | 82 | 111 | 20.9 | 33.0 | 0.00 | 0.00 | 0.00 | 82 | 1012.8 |
| 20260507021126 | 81 | 116 | 18.2 | 41.7 | 0.00 | 0.00 | 0.00 | 82 | 1012.7 |
| 20260507020625 | 81 | 129 | 21.7 | 34.8 | 0.00 | 0.00 | 0.00 | 82 | 1012.8 |
| 20260507020120 | 82 | 122 | 18.2 | 30.4 | 0.00 | 0.00 | 0.00 | 82 | 1012.8 |
| 20260507015619 | 82 | 99 | 28.7 | 34.8 | 0.00 | 0.00 | 0.00 | 82 | 1012.6 |
| 20260507015116 | 82 | 118 | 21.7 | 37.4 | 0.00 | 0.00 | 0.00 | 82 | 1012.6 |
| 20260507014613 | 82 | 123 | 18.2 | 30.4 | 0.00 | 0.00 | 0.00 | 82 | 1012.4 |
| 20260507014108 | 82 | 96 | 20.0 | 39.1 | 0.00 | 0.00 | 0.00 | 82 | 1012.2 |
| 20260507013605 | 82 | 113 | 20.0 | 33.0 | 0.00 | 0.00 | 0.00 | 82 | 1012.0 |
| 20260507013102 | 82 | 129 | 24.3 | 34.8 | 0.00 | 0.00 | 0.00 | 82 | 1012.2 |
| 20260507012600 | 82 | 110 | 19.1 | 37.4 | 0.00 | 0.00 | 0.00 | 82 | 1012.1 |
| 20260507012055 | 82 | 117 | 23.5 | 37.4 | 0.00 | 0.00 | 0.00 | 82 | 1012.0 |
| 20260507011553 | 82 | 114 | 26.1 | 34.8 | 0.00 | 0.00 | 0.00 | 82 | 1012.1 |
| 20260507011049 | 82 | 173 | 23.5 | 37.4 | 0.00 | 0.00 | 0.00 | 82 | 1011.9 |
| 20260507010544 | 82 | 112 | 18.2 | 37.4 | 0.00 | 0.00 | 0.00 | 82 | 1012.0 |
| 20260507010040 | 82 | 110 | 28.7 | 37.4 | 0.00 | 0.00 | 0.00 | 82 | 1011.9 |
| 20260507005538 | 82 | 87 | 20.0 | 28.7 | 0.00 | 0.00 | 0.00 | 82 | 1011.8 |
| 20260507005034 | 82 | 120 | 21.7 | 28.7 | 0.00 | 0.00 | 0.00 | 82 | 1011.4 |
| 20260507004531 | 82 | 117 | 20.9 | 33.0 | 0.00 | 0.00 | 0.00 | 82 | 1011.7 |
| 20260507004029 | 82 | 124 | 22.6 | 33.0 | 0.00 | 0.00 | 0.00 | 82 | 1011.6 |
| 20260507003524 | 82 | 133 | 21.7 | 30.4 | 0.00 | 0.00 | 0.00 | 82 | 1011.5 |
| 20260507003019 | 82 | 129 | 22.6 | 28.7 | 0.00 | 0.00 | 0.00 | 82 | 1011.5 |
| 20260507002516 | 82 | 122 | 12.2 | 20.0 | 0.00 | 0.00 | 0.00 | 81 | 1011.6 |
| 20260507002013 | 82 | 104 | 22.6 | 33.0 | 0.00 | 0.00 | 0.00 | 81 | 1011.6 |
| 20260507001509 | 82 | 135 | 18.2 | 24.3 | 0.00 | 0.00 | 0.00 | 81 | 1011.4 |
| 20260507001007 | 82 | 110 | 23.5 | 28.7 | 0.00 | 0.00 | 0.00 | 81 | 1011.5 |
| 20260507000502 | 82 | 102 | 19.1 | 26.1 | 0.00 | 0.00 | 0.00 | 81 | 1011.5 |
| 20260506235957 | 82 | 99 | 16.5 | 24.3 | 0.00 | 0.00 | 0.00 | 81 | 1011.5 |
| 20260506235455 | 82 | 73 | 13.9 | 24.3 | 0.00 | 0.00 | 0.00 | 81 | 1011.6 |
| 20260506234951 | 82 | 89 | 16.5 | 30.4 | 0.00 | 0.00 | 0.00 | 81 | 1011.5 |
| 20260506234449 | 82 | 103 | 18.2 | 30.4 | 0.00 | 0.00 | 0.00 | 81 | 1011.3 |
| 20260506233946 | 82 | 112 | 15.6 | 24.3 | 0.00 | 0.00 | 0.00 | 81 | 1011.2 |
| 20260506233443 | 82 | 100 | 13.0 | 26.1 | 0.00 | 0.00 | 0.00 | 81 | 1011.1 |
| 20260506232939 | 82 | 122 | 12.2 | 33.0 | 0.00 | 0.00 | 0.00 | 81 | 1011.2 |
| 20260506232435 | 82 | 122 | 25.2 | 28.7 | 0.00 | 0.00 | 0.00 | 81 | 1011.0 |
| 20260506231931 | 82 | 99 | 20.0 | 30.4 | 0.00 | 0.00 | 0.00 | 81 | 1011.2 |
| 20260506231429 | 82 | 112 | 17.4 | 37.4 | 0.00 | 0.00 | 0.00 | 80 | 1011.1 |
| 20260506230926 | 82 | 117 | 13.9 | 24.3 | 0.00 | 0.00 | 0.00 | 80 | 1011.1 |
| 20260506230422 | 82 | 115 | 17.4 | 21.7 | 0.00 | 0.00 | 0.00 | 80 | 1011.0 |
| 20260506225919 | 82 | 116 | 20.0 | 30.4 | 0.00 | 0.00 | 0.00 | 80 | 1010.8 |
| 20260506225416 | 82 | 105 | 17.4 | 30.4 | 0.00 | 0.00 | 0.00 | 80 | 1010.6 |
| 20260506224913 | 83 | 129 | 20.9 | 28.7 | 0.00 | 0.00 | 0.00 | 80 | 1010.9 |
| 20260506224411 | 83 | 102 | 17.4 | 39.1 | 0.00 | 0.00 | 0.00 | 80 | 1010.8 |
| 20260506223906 | 83 | 95 | 14.8 | 30.4 | 0.00 | 0.00 | 0.00 | 79 | 1010.7 |
| 20260506223402 | 83 | 128 | 21.7 | 33.0 | 0.00 | 0.00 | 0.00 | 79 | 1010.7 |
| 20260506222859 | 83 | 84 | 16.5 | 41.7 | 0.00 | 0.00 | 0.00 | 78 | 1010.6 |
| 20260506222355 | 83 | 103 | 20.9 | 26.1 | 0.00 | 0.00 | 0.00 | 78 | 1010.6 |
| 20260506221853 | 83 | 118 | 24.3 | 34.8 | 0.00 | 0.00 | 0.00 | 78 | 1010.4 |
| 20260506221350 | 83 | 74 | 21.7 | 34.8 | 0.00 | 0.00 | 0.00 | 77 | 1010.5 |
| 20260506220848 | 84 | 110 | 21.7 | 28.7 | 0.00 | 0.00 | 0.00 | 77 | 1010.5 |
| 20260506220343 | 84 | 88 | 16.5 | 28.7 | 0.00 | 0.00 | 0.00 | 77 | 1010.5 |
| 20260506215840 | 84 | 97 | 16.5 | 37.4 | 0.00 | 0.00 | 0.00 | 77 | 1010.6 |
| 20260506215336 | 84 | 138 | 23.5 | 34.8 | 0.00 | 0.00 | 0.00 | 76 | 1010.5 |
| 20260506214832 | 85 | 109 | 19.1 | 34.8 | 0.00 | 0.00 | 0.00 | 76 | 1010.4 |
| 20260506214329 | 85 | 69 | 11.3 | 26.1 | 0.00 | 0.00 | 0.00 | 76 | 1010.5 |
| 20260506213827 | 85 | 105 | 11.3 | 33.0 | 0.00 | 0.00 | 0.00 | 76 | 1010.5 |
| 20260506213324 | 85 | 132 | 21.7 | 33.0 | 0.00 | 0.00 | 0.00 | 75 | 1010.5 |
| 20260506212821 | 85 | 77 | 14.8 | 24.3 | 0.00 | 0.00 | 0.00 | 75 | 1010.4 |
| 20260506212317 | 85 | 117 | 24.3 | 34.8 | 0.00 | 0.00 | 0.00 | 75 | 1010.4 |
| 20260506211812 | 86 | 73 | 10.4 | 28.7 | 0.00 | 0.00 | 0.00 | 75 | 1010.4 |
| 20260506211308 | 86 | 119 | 20.0 | 28.7 | 0.00 | 0.00 | 0.00 | 73 | 1010.4 |
| 20260506210806 | 86 | 103 | 13.0 | 28.7 | 0.00 | 0.00 | 0.00 | 73 | 1010.4 |
| 20260506210303 | 86 | 80 | 21.7 | 26.1 | 0.00 | 0.00 | 0.00 | 73 | 1010.4 |
| 20260506205800 | 87 | 96 | 13.0 | 30.4 | 0.00 | 0.00 | 0.00 | 72 | 1010.4 |
| 20260506205255 | 87 | 132 | 13.0 | 21.7 | 0.00 | 0.00 | 0.00 | 73 | 1010.5 |
| 20260506204752 | 87 | 101 | 14.8 | 28.7 | 0.00 | 0.00 | 0.00 | 73 | 1010.5 |
| 20260506204250 | 87 | 129 | 17.4 | 21.7 | 0.00 | 0.00 | 0.00 | 73 | 1010.7 |
| 20260506203748 | 87 | 113 | 17.4 | 26.1 | 0.00 | 0.00 | 0.00 | 72 | 1010.7 |
| 20260506203245 | 87 | 93 | 20.0 | 34.8 | 0.00 | 0.00 | 0.00 | 72 | 1010.6 |
| 20260506202742 | 87 | 145 | 14.8 | 21.7 | 0.00 | 0.00 | 0.00 | 72 | 1010.7 |
| 20260506202238 | 87 | 113 | 18.2 | 28.7 | 0.00 | 0.00 | 0.00 | 73 | 1010.6 |
| 20260506201735 | 87 | 126 | 21.7 | 41.7 | 0.00 | 0.00 | 0.00 | 72 | 1010.8 |
| 20260506201232 | 88 | 118 | 20.0 | 26.1 | 0.00 | 0.00 | 0.00 | 71 | 1011.0 |
| 20260506200729 | 87 | 112 | 14.8 | 28.7 | 0.00 | 0.00 | 0.00 | 72 | 1010.7 |
| 20260506200226 | 87 | 115 | 20.9 | 28.7 | 0.00 | 0.00 | 0.00 | 73 | 1010.8 |
| 20260506195722 | 86 | 115 | 13.9 | 33.0 | 0.00 | 0.00 | 0.00 | 74 | 1011.2 |
| 20260506195218 | 86 | 132 | 20.9 | 33.0 | 0.00 | 0.00 | 0.00 | 73 | 1011.0 |
| 20260506194715 | 86 | 122 | 15.6 | 34.8 | 0.00 | 0.00 | 0.00 | 74 | 1011.2 |
| 20260506194212 | 87 | 115 | 17.4 | 39.1 | 0.00 | 0.00 | 0.00 | 74 | 1010.9 |
| 20260506193710 | 87 | 108 | 9.6 | 24.3 | 0.00 | 0.00 | 0.00 | 73 | 1011.1 |
| 20260506193207 | 87 | 103 | 21.7 | 30.4 | 0.00 | 0.00 | 0.00 | 74 | 1011.1 |
| 20260506192703 | 86 | 121 | 14.8 | 37.4 | 0.00 | 0.00 | 0.00 | 74 | 1011.1 |
| 20260506192200 | 86 | 108 | 20.0 | 43.4 | 0.00 | 0.00 | 0.00 | 74 | 1011.0 |
| 20260506191657 | 87 | 133 | 20.9 | 30.4 | 0.00 | 0.00 | 0.00 | 73 | 1011.1 |
| 20260506191153 | 86 | 103 | 26.9 | 39.1 | 0.00 | 0.00 | 0.00 | 74 | 1011.1 |
| 20260506190650 | 86 | 121 | 22.6 | 34.8 | 0.00 | 0.00 | 0.00 | 74 | 1011.0 |
| 20260506190147 | 86 | 134 | 23.5 | 39.1 | 0.00 | 0.00 | 0.00 | 74 | 1011.3 |
| 20260506185644 | 87 | 97 | 22.6 | 33.0 | 0.00 | 0.00 | 0.00 | 74 | 1011.3 |
| 20260506185140 | 87 | 111 | 20.9 | 26.1 | 0.00 | 0.00 | 0.00 | 74 | 1011.1 |
| 20260506184638 | 87 | 110 | 23.5 | 33.0 | 0.00 | 0.00 | 0.00 | 73 | 1011.4 |
| 20260506184135 | 87 | 94 | 19.1 | 34.8 | 0.00 | 0.00 | 0.00 | 74 | 1011.4 |
| 20260506183631 | 87 | 104 | 20.0 | 39.1 | 0.00 | 0.00 | 0.00 | 73 | 1011.6 |
| 20260506183127 | 87 | 139 | 27.8 | 37.4 | 0.00 | 0.00 | 0.00 | 74 | 1011.7 |
| 20260506182625 | 87 | 136 | 26.1 | 33.0 | 0.00 | 0.00 | 0.00 | 74 | 1011.6 |
| 20260506182122 | 87 | 80 | 24.3 | 41.7 | 0.00 | 0.00 | 0.00 | 74 | 1011.8 |
| 20260506181620 | 87 | 132 | 20.9 | 37.4 | 0.00 | 0.00 | 0.00 | 74 | 1011.7 |
| 20260506181117 | 87 | 118 | 26.9 | 41.7 | 0.00 | 0.00 | 0.00 | 73 | 1011.9 |
| 20260506180614 | 87 | 123 | 26.1 | 37.4 | 0.00 | 0.00 | 0.00 | 72 | 1012.0 |
| 20260506180110 | 87 | 107 | 20.9 | 41.7 | 0.00 | 0.00 | 0.00 | 73 | 1012.1 |
| 20260506175606 | 87 | 132 | 24.3 | 37.4 | 0.00 | 0.00 | 0.00 | 73 | 1012.2 |
| 20260506175102 | 87 | 123 | 24.3 | 33.0 | 0.00 | 0.00 | 0.00 | 73 | 1012.3 |
| 20260506174601 | 87 | 123 | 24.3 | 28.7 | 0.00 | 0.00 | 0.00 | 72 | 1012.3 |
| 20260506174057 | 87 | 111 | 13.9 | 26.1 | 0.00 | 0.00 | 0.00 | 73 | 1012.5 |
| 20260506173555 | 88 | 139 | 25.2 | 37.4 | 0.00 | 0.00 | 0.00 | 72 | 1012.6 |
| 20260506173052 | 88 | 133 | 14.8 | 21.7 | 0.00 | 0.00 | 0.00 | 72 | 1012.7 |
| 20260506172549 | 87 | 111 | 13.0 | 28.7 | 0.00 | 0.00 | 0.00 | 74 | 1012.7 |
| 20260506172045 | 88 | 123 | 18.2 | 21.7 | 0.00 | 0.00 | 0.00 | 72 | 1012.9 |
| 20260506171543 | 88 | 142 | 20.9 | 30.4 | 0.00 | 0.00 | 0.00 | 72 | 1013.0 |
| 20260506171041 | 88 | 102 | 19.1 | 26.1 | 0.00 | 0.00 | 0.00 | 72 | 1013.2 |
| 20260506170538 | 87 | 125 | 20.9 | 39.1 | 0.00 | 0.00 | 0.00 | 73 | 1013.2 |
| 20260506170035 | 88 | 124 | 17.4 | 28.7 | 0.00 | 0.00 | 0.00 | 72 | 1013.3 |
| 20260506165533 | 87 | 157 | 21.7 | 37.4 | 0.00 | 0.00 | 0.00 | 73 | 1013.5 |
| 20260506165029 | 87 | 96 | 20.0 | 24.3 | 0.00 | 0.00 | 0.00 | 73 | 1013.3 |
| 20260506164526 | 87 | 104 | 21.7 | 30.4 | 0.00 | 0.00 | 0.00 | 72 | 1013.5 |
| 20260506164023 | 87 | 127 | 15.6 | 33.0 | 0.00 | 0.00 | 0.00 | 73 | 1013.5 |
| 20260506163520 | 87 | 110 | 16.5 | 30.4 | 0.00 | 0.00 | 0.00 | 73 | 1013.7 |
| 20260506163015 | 87 | 117 | 19.1 | 28.7 | 0.00 | 0.00 | 0.00 | 73 | 1013.7 |
| 20260506162512 | 86 | 109 | 17.4 | 26.1 | 0.00 | 0.00 | 0.00 | 74 | 1013.7 |
| 20260506162009 | 86 | 121 | 24.3 | 34.8 | 0.00 | 0.00 | 0.00 | 73 | 1013.7 |
| 20260506161507 | 87 | 98 | 22.6 | 30.4 | 0.00 | 0.00 | 0.00 | 73 | 1013.8 |
| 20260506161003 | 87 | 109 | 17.4 | 30.4 | 0.00 | 0.00 | 0.00 | 73 | 1013.6 |
| 20260506160501 | 87 | 124 | 23.5 | 30.4 | 0.00 | 0.00 | 0.00 | 73 | 1013.7 |
| 20260506155958 | 87 | 100 | 18.2 | 33.0 | 0.00 | 0.00 | 0.00 | 73 | 1013.7 |
| 20260506155457 | 87 | 113 | 24.3 | 34.8 | 0.00 | 0.00 | 0.00 | 73 | 1013.8 |
| 20260506153628 | 87 | 91 | 27.8 | 37.4 | 0.00 | 0.00 | 0.00 | 73 | 1013.7 |
| 20260506153125 | 86 | 118 | 20.0 | 30.4 | 0.00 | 0.00 | 0.00 | 74 | 1013.6 |
| 20260506152622 | 86 | 119 | 27.8 | 37.4 | 0.00 | 0.00 | 0.00 | 73 | 1013.8 |
| 20260506152120 | 86 | 110 | 22.6 | 30.4 | 0.00 | 0.00 | 0.00 | 73 | 1013.8 |
| 20260506151618 | 86 | 125 | 18.2 | 34.8 | 0.00 | 0.00 | 0.00 | 74 | 1013.7 |
| 20260506151115 | 86 | 149 | 26.9 | 33.0 | 0.00 | 0.00 | 0.00 | 73 | 1013.5 |
| 20260506150612 | 87 | 118 | 26.9 | 34.8 | 0.00 | 0.00 | 0.00 | 73 | 1013.7 |
| 20260506150108 | 86 | 162 | 18.2 | 30.4 | 0.00 | 0.00 | 0.00 | 74 | 1013.8 |
| 20260506145605 | 86 | 123 | 20.0 | 34.8 | 0.00 | 0.00 | 0.00 | 75 | 1013.7 |
| 20260506145102 | 85 | 133 | 24.3 | 34.8 | 0.00 | 0.00 | 0.00 | 75 | 1013.6 |
| 20260506144559 | 86 | 134 | 26.9 | 39.1 | 0.00 | 0.00 | 0.00 | 74 | 1013.5 |
| 20260506144056 | 86 | 101 | 26.1 | 34.8 | 0.00 | 0.00 | 0.00 | 74 | 1013.7 |
| 20260506143554 | 86 | 160 | 22.6 | 33.0 | 0.00 | 0.00 | 0.00 | 75 | 1013.6 |
| 20260506143052 | 86 | 113 | 28.7 | 34.8 | 0.00 | 0.00 | 0.00 | 75 | 1013.8 |
| 20260506142550 | 86 | 98 | 21.7 | 34.8 | 0.00 | 0.00 | 0.00 | 75 | 1013.8 |
| 20260506142048 | 85 | 71 | 20.0 | 33.0 | 0.00 | 0.00 | 0.00 | 75 | 1014.0 |
| 20260506141545 | 85 | 111 | 26.9 | 39.1 | 0.00 | 0.00 | 0.00 | 75 | 1014.0 |
| 20260506141043 | 86 | 103 | 29.5 | 34.8 | 0.00 | 0.00 | 0.00 | 75 | 1014.0 |
| 20260506140540 | 85 | 121 | 24.3 | 39.1 | 0.00 | 0.00 | 0.00 | 75 | 1013.8 |
| 20260506140038 | 85 | 104 | 30.4 | 41.7 | 0.00 | 0.00 | 0.00 | 75 | 1014.0 |
| 20260506135534 | 86 | 117 | 19.1 | 33.0 | 0.00 | 0.00 | 0.00 | 75 | 1013.9 |
| 20260506135030 | 85 | 111 | 16.5 | 30.4 | 0.00 | 0.00 | 0.00 | 76 | 1013.8 |
| 20260506134527 | 85 | 100 | 22.6 | 30.4 | 0.00 | 0.00 | 0.00 | 76 | 1013.6 |
| 20260506134023 | 85 | 106 | 26.9 | 34.8 | 0.00 | 0.00 | 0.00 | 75 | 1013.7 |
| 20260506133520 | 85 | 97 | 22.6 | 34.8 | 0.00 | 0.00 | 0.00 | 75 | 1013.7 |
| 20260506133017 | 85 | 124 | 20.0 | 33.0 | 0.00 | 0.00 | 0.00 | 75 | 1013.8 |
| 20260506132514 | 85 | 105 | 22.6 | 33.0 | 0.00 | 0.00 | 0.00 | 75 | 1013.8 |
| 20260506132012 | 85 | 143 | 30.4 | 37.4 | 0.00 | 0.00 | 0.00 | 75 | 1013.7 |
| 20260506131509 | 85 | 112 | 23.5 | 37.4 | 0.00 | 0.00 | 0.00 | 75 | 1013.7 |
| 20260506131005 | 85 | 119 | 26.9 | 39.1 | 0.00 | 0.00 | 0.00 | 75 | 1013.8 |
| 20260506130502 | 85 | 108 | 23.5 | 30.4 | 0.00 | 0.00 | 0.00 | 75 | 1013.6 |
| 20260506125959 | 85 | 102 | 20.0 | 30.4 | 0.00 | 0.00 | 0.00 | 76 | 1013.7 |
| 20260506125458 | 84 | 131 | 22.6 | 39.1 | 0.00 | 0.00 | 0.00 | 76 | 1013.6 |
| 20260506124955 | 84 | 117 | 20.9 | 28.7 | 0.00 | 0.00 | 0.00 | 76 | 1013.6 |
| 20260506124453 | 84 | 115 | 26.9 | 33.0 | 0.00 | 0.00 | 0.00 | 76 | 1013.6 |
| 20260506123950 | 84 | 104 | 14.8 | 33.0 | 0.00 | 0.00 | 0.00 | 77 | 1013.6 |
| 20260506123448 | 84 | 139 | 20.0 | 39.1 | 0.00 | 0.00 | 0.00 | 77 | 1013.4 |
| 20260506122946 | 84 | 117 | 17.4 | 34.8 | 0.00 | 0.00 | 0.00 | 77 | 1013.3 |
| 20260506122442 | 83 | 109 | 18.2 | 33.0 | 0.00 | 0.00 | 0.00 | 77 | 1013.3 |
| 20260506121941 | 83 | 122 | 25.2 | 37.4 | 0.00 | 0.00 | 0.00 | 77 | 1013.4 |
| 20260506121437 | 83 | 116 | 23.5 | 39.1 | 0.00 | 0.00 | 0.00 | 78 | 1013.4 |
| 20260506120934 | 83 | 110 | 29.5 | 39.1 | 0.00 | 0.00 | 0.00 | 78 | 1013.4 |
| 20260506120432 | 83 | 136 | 22.6 | 33.0 | 0.00 | 0.00 | 0.00 | 78 | 1013.1 |
| 20260506115929 | 82 | 117 | 25.2 | 37.4 | 0.00 | 0.00 | 0.00 | 79 | 1013.3 |
| 20260506115427 | 82 | 114 | 24.3 | 33.0 | 0.00 | 0.00 | 0.00 | 79 | 1013.3 |
| 20260506114925 | 82 | 101 | 23.5 | 30.4 | 0.00 | 0.00 | 0.00 | 79 | 1013.1 |
| 20260506114423 | 82 | 151 | 24.3 | 33.0 | 0.00 | 0.00 | 0.00 | 79 | 1013.4 |
| 20260506113921 | 82 | 126 | 18.2 | 33.0 | 0.00 | 0.00 | 0.00 | 79 | 1013.2 |
| 20260506113418 | 82 | 125 | 23.5 | 28.7 | 0.00 | 0.00 | 0.00 | 80 | 1013.2 |
| 20260506112914 | 82 | 107 | 22.6 | 39.1 | 0.00 | 0.00 | 0.00 | 79 | 1013.1 |
| 20260506112412 | 81 | 110 | 22.6 | 33.0 | 0.00 | 0.00 | 0.00 | 80 | 1013.2 |
| 20260506111909 | 82 | 128 | 16.5 | 24.3 | 0.00 | 0.00 | 0.00 | 80 | 1013.0 |
| 20260506111407 | 81 | 135 | 18.2 | 33.0 | 0.00 | 0.00 | 0.00 | 80 | 1013.0 |
| 20260506110904 | 81 | 115 | 22.6 | 33.0 | 0.00 | 0.00 | 0.00 | 80 | 1013.0 |
| 20260506110402 | 81 | 125 | 21.7 | 26.1 | 0.00 | 0.00 | 0.00 | 81 | 1012.9 |
| 20260506105858 | 81 | 140 | 19.1 | 28.7 | 0.00 | 0.00 | 0.00 | 81 | 1012.9 |
| 20260506105354 | 81 | 101 | 11.3 | 26.1 | 0.00 | 0.00 | 0.00 | 81 | 1012.6 |
| 20260506104852 | 81 | 100 | 14.8 | 24.3 | 0.00 | 0.00 | 0.00 | 81 | 1012.6 |
| 20260506104350 | 80 | 120 | 14.8 | 20.0 | 0.00 | 0.00 | 0.00 | 81 | 1012.6 |
| 20260506103847 | 80 | 107 | 15.6 | 21.7 | 0.00 | 0.00 | 0.00 | 81 | 1012.6 |
| 20260506103345 | 80 | 142 | 14.8 | 21.7 | 0.00 | 0.00 | 0.00 | 81 | 1012.5 |
| 20260506102842 | 80 | 144 | 16.5 | 26.1 | 0.00 | 0.00 | 0.00 | 81 | 1012.6 |
| 20260506102340 | 80 | 116 | 8.7 | 26.1 | 0.00 | 0.00 | 0.00 | 81 | 1012.2 |
| 20260506101837 | 80 | 134 | 10.4 | 20.0 | 0.00 | 0.00 | 0.00 | 81 | 1012.3 |
| 20260506101333 | 80 | 118 | 14.8 | 24.3 | 0.00 | 0.00 | 0.00 | 81 | 1012.2 |
| 20260506100831 | 80 | 121 | 11.3 | 21.7 | 0.00 | 0.00 | 0.00 | 81 | 1012.0 |
| 20260506100329 | 80 | 101 | 14.8 | 28.7 | 0.00 | 0.00 | 0.00 | 81 | 1012.1 |
| 20260506095827 | 80 | 130 | 16.5 | 28.7 | 0.00 | 0.00 | 0.00 | 80 | 1012.3 |
| 20260506095323 | 80 | 160 | 14.8 | 21.7 | 0.00 | 0.00 | 0.00 | 81 | 1012.3 |
| 20260506094820 | 80 | 145 | 20.0 | 28.7 | 0.00 | 0.00 | 0.00 | 80 | 1012.1 |
| 20260506094319 | 80 | 111 | 20.9 | 37.4 | 0.00 | 0.00 | 0.00 | 81 | 1012.2 |
| 20260506093817 | 80 | 111 | 15.6 | 26.1 | 0.00 | 0.00 | 0.00 | 80 | 1012.1 |
| 20260506093313 | 80 | 136 | 13.9 | 24.3 | 0.00 | 0.00 | 0.00 | 80 | 1012.4 |
| 20260506092812 | 80 | 148 | 16.5 | 21.7 | 0.00 | 0.00 | 0.00 | 80 | 1012.2 |
| 20260506092309 | 80 | 151 | 17.4 | 24.3 | 0.00 | 0.00 | 0.00 | 80 | 1012.3 |
| 20260506091806 | 80 | 126 | 22.6 | 26.1 | 0.00 | 0.00 | 0.00 | 80 | 1012.1 |
| 20260506091304 | 80 | 120 | 18.2 | 30.4 | 0.00 | 0.00 | 0.00 | 80 | 1012.1 |
| 20260506090801 | 80 | 100 | 16.5 | 28.7 | 0.00 | 0.00 | 0.00 | 80 | 1012.1 |
| 20260506090258 | 80 | 149 | 15.6 | 26.1 | 0.00 | 0.00 | 0.00 | 80 | 1011.9 |
| 20260506085755 | 80 | 100 | 19.1 | 24.3 | 0.00 | 0.00 | 0.00 | 80 | 1012.0 |
| 20260506085251 | 80 | 156 | 20.0 | 26.1 | 0.00 | 0.00 | 0.00 | 80 | 1011.8 |
| 20260506084748 | 80 | 142 | 18.2 | 28.7 | 0.00 | 0.00 | 0.00 | 80 | 1011.7 |
| 20260506084244 | 80 | 113 | 18.2 | 26.1 | 0.00 | 0.00 | 0.00 | 80 | 1012.0 |
| 20260506083741 | 80 | 122 | 8.7 | 17.4 | 0.00 | 0.00 | 0.00 | 80 | 1011.7 |
| 20260506083239 | 80 | 106 | 13.0 | 33.0 | 0.00 | 0.00 | 0.00 | 80 | 1011.7 |
| 20260506082736 | 80 | 124 | 18.2 | 24.3 | 0.00 | 0.00 | 0.00 | 80 | 1011.7 |
| 20260506082231 | 80 | 122 | 13.9 | 20.0 | 0.00 | 0.00 | 0.00 | 80 | 1011.8 |
| 20260506081730 | 80 | 124 | 22.6 | 30.4 | 0.00 | 0.00 | 0.00 | 80 | 1011.7 |
| 20260506081227 | 80 | 124 | 23.5 | 28.7 | 0.00 | 0.00 | 0.00 | 80 | 1011.7 |
| 20260506080725 | 80 | 96 | 12.2 | 24.3 | 0.00 | 0.00 | 0.00 | 80 | 1011.5 |
| 20260506080221 | 80 | 129 | 13.9 | 28.7 | 0.00 | 0.00 | 0.00 | 80 | 1011.7 |
| 20260506073205 | 80 | 143 | 25.2 | 34.8 | 0.00 | 0.00 | 0.00 | 79 | 1011.6 |
| 20260506072701 | 80 | 119 | 21.7 | 33.0 | 0.00 | 0.00 | 0.00 | 80 | 1011.7 |
| 20260506072159 | 80 | 141 | 13.9 | 30.4 | 0.00 | 0.00 | 0.00 | 80 | 1011.7 |
| 20260506071656 | 80 | 144 | 19.1 | 30.4 | 0.00 | 0.00 | 0.00 | 80 | 1011.5 |
| 20260506071154 | 80 | 83 | 21.7 | 33.0 | 0.00 | 0.00 | 0.00 | 80 | 1011.5 |
| 20260506070651 | 80 | 126 | 14.8 | 26.1 | 0.00 | 0.00 | 0.00 | 80 | 1011.4 |
| 20260506070148 | 80 | 120 | 20.9 | 34.8 | 0.00 | 0.00 | 0.00 | 80 | 1011.5 |
| 20260506062125 | 80 | 120 | 14.8 | 34.8 | 0.00 | 0.00 | 0.00 | 79 | 1012.0 |
| 20260506061621 | 80 | 128 | 20.9 | 30.4 | 0.00 | 0.00 | 0.00 | 79 | 1012.1 |
| 20260506061119 | 80 | 116 | 13.9 | 34.8 | 0.00 | 0.00 | 0.00 | 79 | 1012.2 |
| 20260506060617 | 80 | 144 | 21.7 | 30.4 | 0.00 | 0.00 | 0.00 | 79 | 1012.1 |
| 20260506060114 | 80 | 119 | 20.9 | 28.7 | 0.00 | 0.00 | 0.00 | 79 | 1012.1 |